Mobridge, SD

9:12 AM CST on December 07, 2016 (GMT -0600)
Mobridge Municipal

Weather History for KMBG - September, 2013

Change the Weather History Date:

Monday, September 16, 2013

  Actual Average Record
Temperature  
Mean Temperature 58 °F 61 °F  
Max Temperature 70 °F 74 °F 95 °F (2002)
Min Temperature 46 °F 48 °F 30 °F (1916)
Degree Days  
Heating Degree Days 7 6  
Month to date heating degree days 15 65  
Since 1 July heating degree days 28 98  
Cooling Degree Days 0 2  
Month to date cooling degree days 94 50  
Year to date cooling degree days 678 631  
Growing Degree Days 8 (Base 50)    
Moisture  
Dew Point 50 °F    
Average Humidity 74    
Maximum Humidity 100    
Minimum Humidity 47    
Precipitation  
Precipitation 0.00 in 0.06 in 1.18 in (1986)
Month to date precipitation 2.75 0.80  
Year to date precipitation 16.57 14.71  
Sea Level Pressure  
Sea Level Pressure 30.16 in    
Wind  
Wind Speed 17 mph (SSE)    
Max Wind Speed 29 mph    
Max Gust Speed 37 mph    
Visibility 10 miles    
Events      
T = Trace of Precipitation, MM = Missing Value Source: NWS Daily Summary

Daily Weather History Graph

Daily Weather History Graph

Search for Another Location

Airport or City:

Trip Planner

Search our weather history database for the weather conditions in past years. The results will help you decide how hot, cold, wet, or windy it might be!

Date:

Astronomy

Sep. 16, 2013 Rise Set
Actual Time 7:21 AM CDT 7:50 PM CDT
Civil Twilight 6:51 AM CDT 8:19 PM CDT
Nautical Twilight 6:16 AM CDT 8:55 PM CDT
Astronomical Twilight 5:40 AM CDT 9:31 PM CDT
Moon 6:05 PM CDT (9/16) 4:02 AM CDT (9/16)
Length of Visible Light 13h 28m
Length of Day
12h 28m
Waxing Gibbous, 90% of the Moon is Illuminated
Sep 16
Waxing Gibbous
Sep 19
Full
Sep 26
Last Quarter
Oct 4
New
Oct 11
First Quarter

Hourly Weather History & Observations

Time (CDT) Temp. Dew Point Humidity Pressure Visibility Wind Dir Wind Speed Gust Speed Precip Events Conditions
12:52 AM 48.0 °F 46.0 °F 93% 30.29 in 10.0 mi SE 4.6 mph - N/A   Clear
1:52 AM 48.9 °F 46.9 °F 93% 30.28 in 10.0 mi ESE 8.1 mph - N/A   Clear
2:52 AM 48.0 °F 45.0 °F 89% 30.28 in 10.0 mi SE 6.9 mph - N/A   Clear
3:52 AM 46.9 °F 45.0 °F 93% 30.27 in 10.0 mi SE 6.9 mph - N/A   Clear
4:52 AM 46.9 °F 46.0 °F 97% 30.27 in 10.0 mi ESE 6.9 mph - N/A   Scattered Clouds
5:52 AM 48.0 °F 46.0 °F 93% 30.26 in 10.0 mi SE 9.2 mph - N/A   Clear
6:52 AM 48.0 °F 46.9 °F 96% 30.25 in 10.0 mi SE 6.9 mph - N/A   Clear
7:52 AM 50.0 °F 48.9 °F 96% 30.25 in 10.0 mi SE 5.8 mph - N/A   Clear
8:52 AM 54.0 °F 51.1 °F 90% 30.24 in 10.0 mi SSE 15.0 mph - N/A   Clear
9:06 AM 53.6 °F 51.8 °F 94% 30.23 in 10.0 mi SSE 13.8 mph - N/A   Scattered Clouds
9:17 AM 55.4 °F 53.6 °F 94% 30.23 in 10.0 mi South 11.5 mph - N/A   Mostly Cloudy
9:52 AM 57.9 °F 54.0 °F 87% 30.24 in 10.0 mi South 16.1 mph - N/A   Scattered Clouds
10:52 AM 62.1 °F 53.1 °F 72% 30.22 in 10.0 mi South 18.4 mph - N/A   Scattered Clouds
11:13 AM 62.6 °F 51.8 °F 68% 30.21 in 10.0 mi South 17.3 mph 27.6 mph N/A   Mostly Cloudy
11:39 AM 62.6 °F 50.0 °F 63% 30.20 in 10.0 mi South 18.4 mph 27.6 mph N/A   Overcast
11:52 AM 64.9 °F 50.0 °F 58% 30.20 in 10.0 mi South 21.9 mph 27.6 mph N/A   Overcast
12:52 PM 66.0 °F 48.9 °F 54% 30.18 in 10.0 mi South 20.7 mph 31.1 mph N/A   Scattered Clouds
1:52 PM 69.1 °F 48.9 °F 49% 30.15 in 10.0 mi South 21.9 mph 27.6 mph N/A   Clear
2:52 PM 70.0 °F 50.0 °F 49% 30.11 in 10.0 mi SSE 24.2 mph 32.2 mph N/A   Clear
3:52 PM 69.1 °F 50.0 °F 51% 30.10 in 10.0 mi SSE 24.2 mph 33.4 mph N/A   Clear
4:52 PM 68.0 °F 51.1 °F 55% 30.07 in 10.0 mi SSE 23.0 mph 35.7 mph N/A   Partly Cloudy
5:52 PM 66.9 °F 51.1 °F 57% 30.05 in 10.0 mi SE 21.9 mph 31.1 mph N/A   Clear
6:52 PM 66.0 °F 51.1 °F 59% 30.02 in 10.0 mi SSE 23.0 mph 28.8 mph N/A   Clear
7:52 PM 64.0 °F 50.0 °F 60% 30.01 in 10.0 mi SSE 20.7 mph 35.7 mph N/A   Clear
8:52 PM 63.0 °F 51.1 °F 65% 30.00 in 10.0 mi SSE 27.6 mph 35.7 mph N/A   Clear
9:52 PM 61.0 °F 51.1 °F 70% 29.99 in 10.0 mi SSE 19.6 mph 29.9 mph N/A   Clear
10:52 PM 60.1 °F 51.1 °F 72% 29.99 in 10.0 mi SSE 20.7 mph 31.1 mph N/A   Clear
11:52 PM 59.0 °F 52.0 °F 78% 29.97 in 10.0 mi SSE 20.7 mph 27.6 mph N/A   Clear